Location: Ferris
(32.5340°N, 96.6656°W)
Time: 10:26:32
(UTC+00:00)

OAO 2 Rocket - Pass Details

Date: 11 February 2026
Orbit: 668 x 734 km, 35.0° (Epoch: 8 March)

Event Time Altitude Azimuth Distance (km) Brightness Sun altitude
Exits shadow 12:13:14 19° 278° (W) 1,658 4.6 -13.2°
Maximum altitude 12:16:52 65° 201° (SSW) 791 3.5 -12.4°
Drops below altitude 10° 12:22:02 10° 120° (ESE) 2,215 7.1 -11.3°
Sets 12:24:30 0° 117° (ESE) 3,139 8.3 -10.8°
